Regional Weather Roundup
Issued by NWS

Home | Current Version | Previous Version | Graphics & Text | Print | Product List | Glossary On
Versions: 1 2 3 4 5 6 7 8 9 10 11 12 13 14 15 16 17 18 19 20 21 22 23 24 25 26 27 28 29 30 31 32 33 34 35 36 37 38 39 40 41 42 43 44 45 46 47 48 49 50
000
ASUS43 KOAX 230810
RWRNE

WEATHER ROUNDUP FOR NEBRASKA
NATIONAL WEATHER SERVICE OMAHA NE
300 AM CDT WED JUL 23 2014

NOTES: SATELLITE DATA IS BEING USED TO AUGMENT CLOUD COVER ABOVE
       12000 FEET.
       "FAIR" INDICATES FEW OR NO CLOUDS BELOW 12,000 FEET WITH NO
       SIGNIFICANT WEATHER AND/OR OBSTRUCTIONS TO VISIBILITY.

  * THESE STATIONS DO NOT REPORT WEATHER SUCH AS RAIN...SNOW OR FOG.

NEZ001>004-019>022-054>056-230900-
NEBRASKA PANHANDLE

CITY           SKY/WX    TMP DP  RH WIND       PRES   REMARKS
SCOTTSBLUFF    CLEAR     71  63  75 SE15G23   30.30F
ALLIANCE       CLEAR     67  61  81 SE14      30.31R
CHADRON        PTCLDY    68  63  84 NE5       30.28R
KIMBALL        CLEAR     68  59  73 E13       30.33F
SIDNEY         PTCLDY    69  61  75 E17       30.34S
$$

NEZ057>060-069>072-079>082-230900-
SOUTHWEST NEBRASKA

CITY           SKY/WX    TMP DP  RH WIND       PRES   REMARKS
NORTH PLATTE   MOCLDY    67  64  90 SE6       30.28F
IMPERIAL       MOCLDY    71  65  81 E9        30.28F
LEXINGTON      PTCLDY    69  66  93 NE5       30.27S
MCCOOK         CLEAR     71  68  90 NE9       30.24F
OGALLALA       PTCLDY    68  63  83 E10       30.30F
$$

NEZ005>010-023>029-035>040-094-230900-
NORTH CENTRAL NEBRASKA

CITY           SKY/WX    TMP DP  RH WIND       PRES   REMARKS
VALENTINE      CLOUDY    71  60  68 SE12      30.24F
AINSWORTH      CLOUDY    66  61  85 SE6       30.28F
BROKEN BOW     MOCLDY    65  63  93 CALM      30.26F
O`NEILL        CLOUDY    67  59  73 SE3       30.25F
ORD            CLOUDY    64  62  93 N6        30.25F
THEDFORD       CLOUDY    68  64  85 E9        30.27F
$$

NEZ041-046>049-061>064-073>077-083>087-230900-
SOUTH CENTRAL NEBRASKA

CITY           SKY/WX    TMP DP  RH WIND       PRES   REMARKS
GRAND ISLAND   PTCLDY    67  64  90 N7        30.25S
AURORA         CLEAR     68  68 100 N7        30.23F
HASTINGS       PTCLDY    68  64  87 NE6       30.23F
HEBRON         PTCLDY    73  68  83 NE3       30.20S
HOLDREGE       PTCLDY    69  67  93 NE6       30.24S THUNDER
KEARNEY *      CLEAR     66  64  94 NE9       30.24F
YORK           CLEAR     66  66 100 NE8       30.22F
$$

NEZ011>018-030>034-042>045-230900-
NORTHEAST NEBRASKA

CITY           SKY/WX    TMP DP  RH WIND       PRES   REMARKS
NORFOLK        PTCLDY    67  57  70 E5        30.23F
ALBION         MOCLDY    65  60  86 N6        30.27R
BLAIR          CLEAR     68  44  41 N7        30.20S
COLUMBUS *     CLEAR     64  57  77 NE5       30.24S
FREMONT        PTCLDY    67  61  81 CALM      30.22R
TEKAMAH        CLEAR     64  60  87 N8        30.21S
WAYNE          CLEAR     60  58  94 CALM      30.24S
$$

NEZ050>053-065>068-078-088>093-230900-
SOUTHEAST NEBRASKA

CITY           SKY/WX    TMP DP  RH WIND       PRES   REMARKS
LINCOLN        CLEAR     69  64  84 N8        30.20S
OMAHA EPPLEY   PTCLDY    68  62  81 N9        30.20R
BEATRICE       CLEAR     65  64  96 N3        30.19R
FALLS CITY     CLEAR     72  68  87 N3        30.14S
NEBRASKA CITY  CLEAR     68  64  85 N7        30.18R
PLATTSMOUTH    CLEAR     70  60  70 N5        30.19R
$$

NEZ044-045-051>053-067-230900-
OMAHA AREA

CITY           SKY/WX    TMP DP  RH WIND       PRES   REMARKS
OMAHA EPPLEY   PTCLDY    68  62  81 N9        30.20R
BLAIR          CLEAR     68  44  41 N7        30.20S
FREMONT        PTCLDY    67  61  81 CALM      30.22R
MILLARD        CLEAR     73  61  67 N3        30.20R
OFFUTT AFB     CLEAR     71  62  74 N8        30.18S
PLATTSMOUTH    CLEAR     70  60  70 N5        30.19R
WAHOO          FAIR      66  62  87 N3        30.22R
$$



USA.gov is the U.S. government's official web portal to all federal, state and local government web resources and services.